Location: Breungeshain
(50.5000°N, 9.2000°E)
Time: 04:55:27
(UTC+00:00)

ISS - Pass Details

Date: 26 May 2018
Orbit: 402 x 407 km, 51.6° (Epoch: 21 May)

Event Time Altitude Azimuth Distance (km) Brightness Sun altitude
Rises 22:19:21 0° 282° (WNW) 2,322 0.4 -17.0°
Reaches altitude 10° 22:21:26 10° 283° (WNW) 1,461 -0.7 -17.1°
Maximum altitude 22:24:43 85° 11° (NNE) 410 -3.9 -17.2°
Enters shadow 22:26:18 28° 100° (E) 794 -2.6 -17.3°
